Moab, UT

3:50 AM MDT on April 24, 2018 (GMT -0600)
Canyonlands

Weather History for KCNY - December, 2013

Change the Weather History Date:

Tuesday, December 3, 2013

  Actual Average Record
Temperature  
Mean Temperature 34 °F 30 °F  
Max Temperature 40 °F 41 °F 65 °F (2017)
Min Temperature 28 °F 20 °F 10 °F (1931)
Degree Days  
Heating Degree Days 31 35  
Month to date heating degree days 94 103  
Since 1 July heating degree days 1350 1312  
Cooling Degree Days 0 0  
Month to date cooling degree days 0 0  
Year to date cooling degree days 1643 1289  
Moisture  
Dew Point 31 °F    
Average Humidity 90    
Maximum Humidity 100    
Minimum Humidity 79    
Precipitation  
Precipitation 0.01 in 0.02 in 0.25 in (1928)
Month to date precipitation 0.01 0.05  
Year to date precipitation 6.76 8.25  
Sea Level Pressure  
Sea Level Pressure 29.56 in    
Wind  
Wind Speed 6 mph (WNW)    
Max Wind Speed 23 mph    
Max Gust Speed 27 mph    
Visibility 9 miles    
Events Fog , Rain , Snow    
T = Trace of Precipitation, MM = Missing Value Source: NWS Daily Summary

Daily Weather History Graph

Daily Weather History Graph

Search for Another Location

Airport or City:

Astronomy

Dec. 03, 2013 Rise Set
Actual Time 7:20 AM MST 4:57 PM MST
Civil Twilight 6:50 AM MST 5:26 PM MST
Nautical Twilight 6:17 AM MST 5:59 PM MST
Astronomical Twilight 5:45 AM MST 6:32 PM MST
Moon 7:53 AM MST (12/3) 6:04 PM MST (12/3)
Length of Visible Light 10h 35m
Length of Day
9h 36m
New Moon, 1% of the Moon is Illuminated
Dec 3
New Moon
Dec 9
First Quarter
Dec 17
Full
Dec 25
Last Quarter
Jan 1
New

Hourly Weather History & Observations

Time (MST) Temp. Windchill Dew Point Humidity Pressure Visibility Wind Dir Wind Speed Gust Speed Precip Events Conditions
12:53 AM 30.9 °F - 28.9 °F 92% 29.81 in 10.0 mi Calm Calm - N/A   Clear
1:53 AM 30.0 °F - 28.9 °F 96% 29.77 in 10.0 mi Calm Calm - N/A   Clear
2:53 AM 30.0 °F - 28.9 °F 96% 29.75 in 10.0 mi Calm Calm - N/A   Clear
3:53 AM 30.9 °F - 28.9 °F 92% 29.72 in 10.0 mi Calm Calm - N/A   Clear
4:53 AM 28.9 °F - 28.0 °F 96% 29.70 in 10.0 mi Calm Calm - N/A   Clear
5:53 AM 28.9 °F 25.2 °F 28.0 °F 96% 29.69 in 10.0 mi South 3.5 mph - N/A   Clear
6:53 AM 30.0 °F - 28.0 °F 92% 29.68 in 10.0 mi Calm Calm - N/A   Clear
7:53 AM 30.9 °F 27.5 °F 28.9 °F 92% 29.66 in 10.0 mi SSW 3.5 mph - N/A   Clear
8:53 AM 30.9 °F - 28.9 °F 92% 29.66 in 10.0 mi Calm Calm - N/A   Clear
9:53 AM 32.0 °F 24.8 °F 30.0 °F 92% 29.66 in 10.0 mi NW 8.1 mph - N/A   Clear
10:53 AM 32.0 °F 27.5 °F 32.0 °F 100% 29.62 in 10.0 mi NNW 4.6 mph - N/A   Clear
11:53 AM 34.0 °F - 32.0 °F 92% 29.56 in 10.0 mi Calm Calm - N/A   Clear
12:53 PM 35.1 °F 30.1 °F 32.0 °F 89% 29.51 in 10.0 mi WNW 5.8 mph - N/A   Clear
1:53 PM 39.0 °F 36.8 °F 33.1 °F 79% 29.47 in 10.0 mi WNW 3.5 mph - N/A   Clear
2:53 PM 39.0 °F 36.8 °F 34.0 °F 82% 29.46 in 10.0 mi West 3.5 mph - N/A   Mostly Cloudy
3:53 PM 37.9 °F 32.1 °F 34.0 °F 86% 29.46 in 10.0 mi NNW 8.1 mph - N/A   Mostly Cloudy
4:53 PM 37.0 °F 31.6 °F 36.0 °F 96% 29.47 in 10.0 mi NW 6.9 mph - N/A   Overcast
5:53 PM 37.0 °F 29.3 °F 35.1 °F 93% 29.48 in 10.0 mi NW 11.5 mph - N/A   Overcast
6:53 PM 37.9 °F 30.5 °F 34.0 °F 86% 29.48 in 10.0 mi West 11.5 mph - N/A   Overcast
7:53 PM 36.0 °F 29.0 °F 33.1 °F 89% 29.47 in 10.0 mi West 9.2 mph - 0.00 in Rain Light Rain
8:53 PM 33.1 °F 23.4 °F 30.9 °F 92% 29.49 in 10.0 mi West 13.8 mph - 0.00 in   Overcast
9:09 PM 33.1 °F 22.6 °F 30.9 °F 92% 29.45 in 10.0 mi West 16.1 mph - N/A   Overcast
9:38 PM 32.0 °F 24.2 °F 30.0 °F 92% 29.44 in 10.0 mi West 9.2 mph - N/A   Overcast
9:45 PM 33.1 °F 25.5 °F 30.0 °F 89% 29.44 in 10.0 mi West 9.2 mph - N/A   Overcast
9:53 PM 33.1 °F 27.7 °F 30.0 °F 89% 29.47 in 10.0 mi West 5.8 mph - N/A   Overcast
10:53 PM 30.9 °F 19.8 °F 28.9 °F 92% 29.49 in 8.0 mi WNW 16.1 mph 21.9 mph 0.00 in Snow Light Snow
11:21 PM 30.0 °F 17.5 °F 28.0 °F 92% 29.46 in 1.8 mi WNW 19.6 mph - 0.00 in Snow Light Snow
11:41 PM 30.0 °F 17.5 °F 28.0 °F 92% 29.45 in 0.8 mi WNW 19.6 mph - 0.01 in Snow Light Snow
11:53 PM 28.9 °F 16.1 °F 28.0 °F 96% 29.47 in 0.5 mi West 19.6 mph - 0.01 in Fog , Snow Snow